Miscellaneous Local Product
Issued by NWS Hastings, NE

Home | Current Version | Previous Version | Graphics & Text | Print | Product List | Glossary On
Versions: 1 2 3 4 5 6 7 8 9 10 11 12 13 14 15 16 17 18 19 20 21 22 23 24 25 26 27 28 29 30 31 32 33 34 35 36 37 38 39 40 41 42 43 44 45 46 47 48 49 50
238
AXUS43 KGID 220702
MISGRI

GID CWA HOURLY WEATHER ROUNDUP
NATIONAL WEATHER SERVICE HASTINGS NE
100 AM CST SUN JAN 22 2017

NOTE: "FAIR" INDICATES FEW OR NO CLOUDS BELOW 12,000 FEET WITH NO
SIGNIFICANT WEATHER AND/OR OBSTRUCTIONS TO VISIBILITY.

...SOUTH CENTRAL NEBRASKA...

CITY           SKY/WX    TMP DP  RH WIND       PRES   REMARKS
GRAND ISLAND   CLOUDY    32  30  92 NW7       29.61R WCI  26
HASTINGS       PTCLDY    34  32  92 NW8       29.61R WCI  27
ORD            CLEAR     26  22  84 NW3       29.62R
YORK           CLEAR     32  32 100 NW3       29.59S
AURORA         CLOUDY    32  32 100 NW9       29.60R WCI  24
LEXINGTON      PTCLDY    31  28  91 W7        29.63R WCI  24
HOLDREGE       CLOUDY    33  31  92 N7        29.61S WCI  27
HEBRON         CLOUDY    33  33 100 NW3       29.58R FOG

...NEBRASKA PANHANDLE...

CITY           SKY/WX    TMP DP  RH WIND       PRES   REMARKS
CHADRON        CLEAR     20  18  92 SW8       29.70R WCI  10
ALLIANCE       CLOUDY    25  23  92 W5        29.67R WCI  19
SCOTTSBLUFF    CLOUDY    29  25  85 NW6       29.69R WCI  23
SIDNEY         CLOUDY    32  27  81 W12       29.66R WCI  23

...WESTERN AND NORTH CENTRAL NEBRASKA...

CITY           SKY/WX    TMP DP  RH WIND       PRES   REMARKS
VALENTINE      CLEAR     22  20  92 W7        29.66R WCI  13
AINSWORTH      CLEAR     29  28  96 NW6       29.64S WCI  23
ONEILL         CLEAR     32  30  92 NW8       29.63R WCI  25
BROKEN BOW     CLOUDY    34  30  85 CALM      29.63R
IMPERIAL       PTCLDY    31  26  82 NW8       29.66R WCI  23
NORTH PLATTE   CLOUDY    27  23  85 NW6       29.66R WCI  20
MCCOOK         CLOUDY    31  27  85 NW10      29.63R WCI  22

...EASTERN NEBRASKA...

CITY           SKY/WX    TMP DP  RH WIND       PRES   REMARKS
NORFOLK        CLEAR     26  24  92 W6        29.61R WCI  19
SO SIOUX CITY  MOCLDY    30  28  92 W5        29.63R FOG     WCI  25
TEKAMAH        CLEAR     31  29  92 N5        29.60F FOG     WCI  26
COLUMBUS       CLEAR     34  30  86 N7        29.60R WCI  28
ALBION         CLEAR     31  26  80 NW7       29.62R WCI  25
OMAHA EPPLEY   MOCLDY    32  29  88 N9        29.59R WCI  24
OFFUTT AFB     CLEAR     30  30 100 CALM      29.58R
MILLARD        CLEAR     34  32  94 NW3       29.59R
LINCOLN        CLOUDY    30  29  96 N8        29.59S WCI  22
NEBRASKA CITY  CLEAR     40  35  82 N5        29.56S
BEATRICE       PTCLDY    30  30  98 CALM      29.57S FOG
FALLS CITY     CLOUDY    33  33 100 NW8       29.54F WCI  26

...NORTHERN KANSAS...

CITY           SKY/WX    TMP DP  RH WIND       PRES   REMARKS
GOODLAND       CLOUDY    28  25  88 NW8       29.64R WCI  20
HILL CITY      PTCLDY    34  32  92 N10       29.61R WCI  26
NORTON         SUNNY     34  27  75 NW10      29.61  WCI  26
PHILLIPSBURG   CLEAR     32  32 100 NW8       29.62R WCI  25
SMITH CENTER   CLEAR     30  28  93 N8        29.60S WCI  23
HAYS           PTCLDY    38  35  89 N12       29.57R WCI  30
RUSSELL        MOCLDY    37  34  89 N8        29.54R WCI  31
CONCORDIA      PTCLDY    36  35  96 N7        29.55R WCI  30
SALINA           N/A    N/A N/A N/A MISG        N/A
TOPEKA         CLOUDY    45  42  89 N3        29.52R



USA.gov is the U.S. government's official web portal to all federal, state and local government web resources and services.